User: anonymous   Login
Location: Arroyo de Fuente Vieja
(40.4902°N, 4.1175°W)
Time: 11:58:49
(UTC+00:00)
Language:

Cosmos 1844 Rocket - Orbit

View from above orbital plane
View from above orbital plane
View from above satellite
View from above satellite

Ground track
Ground track

The orbit data is extracted from the following two-line orbital elements,

1 17974U 87041B   24175.67879069  .00000263  00000-0  15326-3 0  9990
2 17974  71.0084 268.2847 0011717  76.4137  33.3021 14.17456557919659
Epoch (UTC): 23 June 2024 16:17:27
Eccentricity: 0.0011717
inclination: 71.0084°
perigee height: 825 km
apogee height: 842 km
right ascension of ascending node: 268.2847°
argument of perigee: 76.4137°
revolutions per day: 14.17456557
mean anomaly at epoch: 33.3021°
orbit number at epoch: 91965

The dashed part of the orbit path shows where the satellite is in the earth's shadow,  

DLR